Time,TemperatureF,DewpointF,PressureIn,WindDirection,WindDirectionDegrees,WindSpeedMPH,WindSpeedGustMPH,Humidity,HourlyPrecipIn,Conditions,Clouds,dailyrainin,SolarRadiationWatts/m^2,SoftwareType,DateUTC
2013-03-17 00:11:00,34.8,22.0,29.87,NE,46,9.0,11.0,59,0.00,,,0.00,0,weatherlink.com 1.10,2013-03-17 04:11:00,
2013-03-17 00:26:00,34.0,18.0,29.87,NNE,24,7.0,11.0,52,0.00,,,0.00,0,weatherlink.com 1.10,2013-03-17 04:26:00,
2013-03-17 00:41:00,33.5,17.0,29.87,NNE,26,5.0,11.0,50,0.00,,,0.00,0,weatherlink.com 1.10,2013-03-17 04:41:00,
2013-03-17 00:56:00,33.2,16.0,29.87,NNE,15,8.0,11.0,50,0.00,,,0.00,0,weatherlink.com 1.10,2013-03-17 04:56:00,
2013-03-17 01:11:00,33.0,15.0,29.87,North,10,4.0,11.0,48,0.00,,,0.00,0,weatherlink.com 1.10,2013-03-17 05:11:00,
2013-03-17 01:26:00,32.8,16.0,29.88,NNE,21,1.0,8.0,50,0.00,,,0.00,0,weatherlink.com 1.10,2013-03-17 05:26:00,
2013-03-17 01:41:00,32.7,16.0,29.88,NNE,12,0.0,10.0,50,0.00,,,0.00,0,weatherlink.com 1.10,2013-03-17 05:41:00,
2013-03-17 01:56:00,32.6,17.0,29.88,NNE,13,2.0,8.0,53,0.00,,,0.00,0,weatherlink.com 1.10,2013-03-17 05:56:00,
2013-03-17 02:11:00,32.6,17.0,29.88,NNE,19,1.0,9.0,54,0.00,,,0.00,0,weatherlink.com 1.10,2013-03-17 06:11:00,
2013-03-17 02:26:00,32.5,17.0,29.88,NNE,22,3.0,7.0,53,0.00,,,0.00,0,weatherlink.com 1.10,2013-03-17 06:26:00,
2013-03-17 02:56:00,32.0,17.0,29.87,NNE,20,0.0,5.0,54,0.00,,,0.00,0,weatherlink.com 1.10,2013-03-17 06:56:00,
2013-03-17 03:11:00,31.8,17.0,29.88,NNE,20,0.0,5.0,54,0.00,,,0.00,0,weatherlink.com 1.10,2013-03-17 07:11:00,
2013-03-17 03:26:00,31.6,17.0,29.88,NNE,20,0.0,4.0,54,0.00,,,0.00,0,weatherlink.com 1.10,2013-03-17 07:26:00,
2013-03-17 03:42:00,31.2,17.0,29.88,NNE,20,0.0,2.0,55,0.00,,,0.00,0,weatherlink.com 1.10,2013-03-17 07:42:00,
2013-03-17 03:56:00,30.9,16.0,29.88,NNE,20,0.0,2.0,55,0.00,,,0.00,0,weatherlink.com 1.10,2013-03-17 07:56:00,
2013-03-17 04:12:00,30.5,16.0,29.89,NNE,20,2.0,4.0,56,0.00,,,0.00,0,weatherlink.com 1.10,2013-03-17 08:12:00,
2013-03-17 04:27:00,30.0,15.0,29.90,NNE,20,1.0,3.0,55,0.00,,,0.00,0,weatherlink.com 1.10,2013-03-17 08:27:00,
2013-03-17 04:42:00,29.5,15.0,29.90,NNE,20,0.0,0.0,56,0.00,,,0.00,0,weatherlink.com 1.10,2013-03-17 08:42:00,
2013-03-17 04:57:00,29.0,15.0,29.91,NNE,20,0.0,0.0,56,0.00,,,0.00,0,weatherlink.com 1.10,2013-03-17 08:57:00,
2013-03-17 05:12:00,28.7,15.0,29.91,NNE,20,0.0,4.0,58,0.00,,,0.00,0,weatherlink.com 1.10,2013-03-17 09:12:00,
2013-03-17 05:27:00,28.3,15.0,29.91,NNE,20,0.0,0.0,58,0.00,,,0.00,0,weatherlink.com 1.10,2013-03-17 09:27:00,
2013-03-17 05:42:00,28.0,16.0,29.91,NNE,20,0.0,0.0,60,0.00,,,0.00,0,weatherlink.com 1.10,2013-03-17 09:42:00,
2013-03-17 05:57:00,27.8,16.0,29.91,NNE,20,0.0,0.0,61,0.00,,,0.00,0,weatherlink.com 1.10,2013-03-17 09:57:00,
2013-03-17 06:12:00,27.5,16.0,29.92,NNE,20,0.0,0.0,62,0.00,,,0.00,0,weatherlink.com 1.10,2013-03-17 10:12:00,
2013-03-17 06:27:00,27.4,16.0,29.92,NNE,20,0.0,3.0,63,0.00,,,0.00,0,weatherlink.com 1.10,2013-03-17 10:27:00,
2013-03-17 06:42:00,27.2,16.0,29.92,NNE,20,0.0,4.0,63,0.00,,,0.00,0,weatherlink.com 1.10,2013-03-17 10:42:00,
2013-03-17 07:12:00,27.2,16.0,29.95,NNE,19,3.0,4.0,63,0.00,,,0.00,16,weatherlink.com 1.10,2013-03-17 11:12:00,
2013-03-17 07:27:00,27.5,16.0,29.96,NNE,17,2.0,4.0,62,0.00,,,0.00,25,weatherlink.com 1.10,2013-03-17 11:27:00,
2013-03-17 07:42:00,28.0,16.0,29.97,NNE,17,0.0,3.0,61,0.00,,,0.00,33,weatherlink.com 1.10,2013-03-17 11:42:00,
2013-03-17 07:57:00,28.8,16.0,29.98,NNE,17,0.0,3.0,59,0.00,,,0.00,42,weatherlink.com 1.10,2013-03-17 11:57:00,
2013-03-17 08:12:00,29.3,16.0,30.00,WNW,302,1.0,9.0,58,0.00,,,0.00,49,weatherlink.com 1.10,2013-03-17 12:12:00,
2013-03-17 08:27:00,29.6,16.0,30.00,NW,311,3.0,9.0,58,0.00,,,0.00,58,weatherlink.com 1.10,2013-03-17 12:27:00,
2013-03-17 08:42:00,30.2,16.0,30.02,WNW,296,13.0,13.0,57,0.00,,,0.00,65,weatherlink.com 1.10,2013-03-17 12:42:00,
2013-03-17 08:57:00,30.2,16.0,30.01,NNW,333,8.0,17.0,57,0.00,,,0.00,70,weatherlink.com 1.10,2013-03-17 12:57:00,
2013-03-17 09:12:00,30.5,17.0,30.02,NW,320,10.0,21.0,57,0.00,,,0.00,77,weatherlink.com 1.10,2013-03-17 13:12:00,
2013-03-17 09:27:00,30.8,17.0,30.01,WNW,285,4.0,18.0,57,0.00,,,0.00,83,weatherlink.com 1.10,2013-03-17 13:27:00,
2013-03-17 09:42:00,31.3,14.0,30.02,NW,304,10.0,19.0,49,0.00,,,0.00,88,weatherlink.com 1.10,2013-03-17 13:42:00,
2013-03-17 09:57:00,31.5,13.0,30.02,WNW,295,8.0,16.0,47,0.00,,,0.00,582,weatherlink.com 1.10,2013-03-17 13:57:00,
2013-03-17 10:13:00,33.0,14.0,30.01,WNW,298,8.0,15.0,46,0.00,,,0.00,624,weatherlink.com 1.10,2013-03-17 14:13:00,
2013-03-17 10:28:00,33.6,14.0,30.01,West,267,4.0,13.0,44,0.00,,,0.00,659,weatherlink.com 1.10,2013-03-17 14:28:00,
2013-03-17 10:43:00,34.7,14.0,30.02,NW,323,9.0,14.0,43,0.00,,,0.00,615,weatherlink.com 1.10,2013-03-17 14:43:00,
2013-03-17 10:58:00,35.3,14.0,30.01,WNW,283,6.0,12.0,42,0.00,,,0.00,689,weatherlink.com 1.10,2013-03-17 14:58:00,
2013-03-17 11:13:00,35.7,13.0,30.01,NNW,342,10.0,18.0,39,0.00,,,0.00,705,weatherlink.com 1.10,2013-03-17 15:13:00,
2013-03-17 11:28:00,36.1,14.0,30.02,West,280,7.0,14.0,40,0.00,,,0.00,761,weatherlink.com 1.10,2013-03-17 15:28:00,
2013-03-17 11:43:00,37.1,15.0,30.02,WNW,288,2.0,17.0,41,0.00,,,0.00,777,weatherlink.com 1.10,2013-03-17 15:43:00,
2013-03-17 11:58:00,37.4,16.0,30.02,WNW,294,13.0,22.0,41,0.00,,,0.00,784,weatherlink.com 1.10,2013-03-17 15:58:00,
2013-03-17 12:13:00,37.7,15.0,30.02,NW,321,2.0,19.0,40,0.00,,,0.00,805,weatherlink.com 1.10,2013-03-17 16:13:00,
2013-03-17 12:28:00,38.4,15.0,30.02,NNW,338,8.0,17.0,39,0.00,,,0.00,812,weatherlink.com 1.10,2013-03-17 16:28:00,
2013-03-17 12:43:00,38.8,15.0,30.02,NW,314,2.0,14.0,38,0.00,,,0.00,837,weatherlink.com 1.10,2013-03-17 16:43:00,
2013-03-17 12:58:00,38.5,14.0,30.02,West,275,10.0,22.0,37,0.00,,,0.00,111,weatherlink.com 1.10,2013-03-17 16:58:00,
2013-03-17 13:13:00,37.9,12.0,30.02,NNW,329,18.0,23.0,35,0.00,,,0.00,91,weatherlink.com 1.10,2013-03-17 17:13:00,
2013-03-17 13:28:00,37.7,12.0,30.02,NW,325,5.0,21.0,34,0.00,,,0.00,105,weatherlink.com 1.10,2013-03-17 17:28:00,
2013-03-17 13:43:00,37.8,13.0,30.02,NW,325,12.0,15.0,36,0.00,,,0.00,95,weatherlink.com 1.10,2013-03-17 17:43:00,
2013-03-17 13:58:00,37.7,11.0,30.01,NW,309,16.0,21.0,33,0.00,,,0.00,149,weatherlink.com 1.10,2013-03-17 17:58:00,
2013-03-17 14:13:00,37.9,11.0,30.02,NNW,335,6.0,21.0,33,0.00,,,0.00,260,weatherlink.com 1.10,2013-03-17 18:13:00,
2013-03-17 14:28:00,38.2,11.0,30.02,North,351,5.0,23.0,32,0.00,,,0.00,98,weatherlink.com 1.10,2013-03-17 18:28:00,
2013-03-17 14:43:00,38.1,11.0,30.02,WNW,283,8.0,15.0,32,0.00,,,0.00,74,weatherlink.com 1.10,2013-03-17 18:43:00,
2013-03-17 14:58:00,38.7,10.0,30.03,NW,319,2.0,22.0,31,0.00,,,0.00,84,weatherlink.com 1.10,2013-03-17 18:58:00,
2013-03-17 15:13:00,38.0,9.0,30.03,NW,315,10.0,24.0,30,0.00,,,0.00,72,weatherlink.com 1.10,2013-03-17 19:13:00,
2013-03-17 15:28:00,38.1,10.0,30.04,NW,318,8.0,17.0,31,0.00,,,0.00,72,weatherlink.com 1.10,2013-03-17 19:28:00,
2013-03-17 15:43:00,37.8,10.0,30.05,North,349,2.0,20.0,31,0.00,,,0.00,67,weatherlink.com 1.10,2013-03-17 19:43:00,
2013-03-17 15:58:00,37.4,8.0,30.05,NNW,332,9.0,21.0,30,0.00,,,0.00,67,weatherlink.com 1.10,2013-03-17 19:58:00,
2013-03-17 16:13:00,37.0,8.0,30.06,NW,306,11.0,16.0,30,0.00,,,0.00,40,weatherlink.com 1.10,2013-03-17 20:13:00,
2013-03-17 16:28:00,37.1,8.0,30.06,NNW,348,4.0,18.0,30,0.00,,,0.00,30,weatherlink.com 1.10,2013-03-17 20:28:00,
2013-03-17 16:43:00,37.0,8.0,30.06,NNW,329,11.0,15.0,30,0.00,,,0.00,32,weatherlink.com 1.10,2013-03-17 20:43:00,
2013-03-17 16:58:00,37.0,8.0,30.07,North,11,10.0,24.0,30,0.00,,,0.00,35,weatherlink.com 1.10,2013-03-17 20:58:00,
2013-03-17 17:13:00,36.9,9.0,30.08,NNW,331,5.0,18.0,32,0.00,,,0.00,33,weatherlink.com 1.10,2013-03-17 21:13:00,
2013-03-17 17:28:00,36.2,8.0,30.09,NNW,341,5.0,17.0,31,0.00,,,0.00,26,weatherlink.com 1.10,2013-03-17 21:28:00,
2013-03-17 17:43:00,35.7,9.0,30.10,NNE,19,6.0,13.0,33,0.00,,,0.00,23,weatherlink.com 1.10,2013-03-17 21:43:00,
2013-03-17 17:58:00,35.5,10.0,30.10,North,350,7.0,17.0,34,0.00,,,0.00,19,weatherlink.com 1.10,2013-03-17 21:58:00,
2013-03-17 18:14:00,35.0,9.0,30.11,NW,306,4.0,18.0,34,0.00,,,0.00,18,weatherlink.com 1.10,2013-03-17 22:14:00,
2013-03-17 18:29:00,34.7,10.0,30.12,North,355,3.0,14.0,35,0.00,,,0.00,9,weatherlink.com 1.10,2013-03-17 22:29:00,
2013-03-17 18:44:00,34.3,10.0,30.13,NNW,336,12.0,14.0,36,0.00,,,0.00,5,weatherlink.com 1.10,2013-03-17 22:44:00,
2013-03-17 18:59:00,33.9,10.0,30.14,NW,315,6.0,16.0,37,0.00,,,0.00,0,weatherlink.com 1.10,2013-03-17 22:59:00,
2013-03-17 19:14:00,33.7,10.0,30.14,NW,311,8.0,12.0,37,0.00,,,0.00,0,weatherlink.com 1.10,2013-03-17 23:14:00,
2013-03-17 19:29:00,33.5,10.0,30.16,NNW,337,0.0,11.0,37,0.00,,,0.00,0,weatherlink.com 1.10,2013-03-17 23:29:00,
2013-03-17 19:44:00,33.2,9.0,30.17,North,350,4.0,13.0,36,0.00,,,0.00,0,weatherlink.com 1.10,2013-03-17 23:44:00,
2013-03-17 19:59:00,32.8,9.0,30.18,NW,324,2.0,8.0,37,0.00,,,0.00,0,weatherlink.com 1.10,2013-03-17 23:59:00,
2013-03-17 20:14:00,32.6,9.0,30.19,NNW,346,0.0,9.0,38,0.00,,,0.00,0,weatherlink.com 1.10,2013-03-18 00:14:00,
2013-03-17 20:29:00,32.5,10.0,30.20,North,355,4.0,9.0,39,0.00,,,0.00,0,weatherlink.com 1.10,2013-03-18 00:29:00,
2013-03-17 20:44:00,32.2,9.0,30.21,NNW,338,3.0,9.0,38,0.00,,,0.00,0,weatherlink.com 1.10,2013-03-18 00:44:00,
2013-03-17 20:59:00,31.9,9.0,30.21,NNW,338,2.0,9.0,39,0.00,,,0.00,0,weatherlink.com 1.10,2013-03-18 00:59:00,
2013-03-17 21:14:00,31.5,8.0,30.23,NNW,335,2.0,13.0,38,0.00,,,0.00,0,weatherlink.com 1.10,2013-03-18 01:14:00,
2013-03-17 21:29:00,31.4,9.0,30.24,NNW,342,1.0,9.0,39,0.00,,,0.00,0,weatherlink.com 1.10,2013-03-18 01:29:00,
2013-03-17 21:44:00,31.1,9.0,30.25,NNW,336,2.0,11.0,39,0.00,,,0.00,0,weatherlink.com 1.10,2013-03-18 01:44:00,
2013-03-17 21:59:00,30.8,10.0,30.25,NNW,343,8.0,10.0,42,0.00,,,0.00,0,weatherlink.com 1.10,2013-03-18 01:59:00,
2013-03-17 22:14:00,30.6,10.0,30.26,NNE,14,7.0,12.0,43,0.00,,,0.00,0,weatherlink.com 1.10,2013-03-18 02:14:00,
2013-03-17 22:29:00,30.1,9.0,30.27,North,9,9.0,13.0,42,0.00,,,0.00,0,weatherlink.com 1.10,2013-03-18 02:29:00,
2013-03-17 22:44:00,29.8,10.0,30.28,North,360,7.0,14.0,43,0.00,,,0.00,0,weatherlink.com 1.10,2013-03-18 02:44:00,
2013-03-17 22:59:00,29.3,9.0,30.29,NNW,339,11.0,14.0,42,0.00,,,0.00,0,weatherlink.com 1.10,2013-03-18 02:59:00,
2013-03-17 23:14:00,28.9,8.0,30.30,North,351,1.0,15.0,42,0.00,,,0.00,0,weatherlink.com 1.10,2013-03-18 03:14:00,
2013-03-17 23:29:00,28.5,7.0,30.30,NNW,339,5.0,11.0,41,0.00,,,0.00,0,weatherlink.com 1.10,2013-03-18 03:29:00,
2013-03-17 23:59:00,27.8,8.0,30.31,NNW,340,0.0,10.0,43,0.00,,,0.00,0,weatherlink.com 1.10,2013-03-18 03:59:00,